Location: Hac?musa Deresi
(39.1694°N, 32.2508°E)
Time: 14:21:45
(UTC+00:00)

ACS3 Solar Sail - Pass Details

Date: 22 April 2026
Orbit: 893 x 948 km, 97.2° (Epoch: 11 May)

Event Time Altitude Azimuth Distance (km) Brightness Sun altitude
Rises 23:39:29 0° 3° (N) 3,558 5.6 -32.3°
Reaches altitude 10° 23:42:01 10° 357° (N) 2,621 4.6 -32.1°
Enters shadow 23:46:12 37° 319° (NW) 1,411 2.7 -31.6°
